This is the latest recevied weather packets stored in our database for station/object VK3BYD-3. If no packets are shown the sender has not sent any weather packets the latest 10 day(s).
| Time | Temp. | Humidity | Pressure | Rain* | Wind** | Luminosity | Snow |
|---|---|---|---|---|---|---|---|
| 1777723182 | 19.44° C | 67% | 1017.7 hPa | 0 mm | - | - | - |
| 1777722278 | 20° C | 67% | 1017.7 hPa | 0 mm | - | - | - |
| 1777721379 | 20° C | 66% | 1017.7 hPa | 0 mm | - | - | - |
| 1777720479 | 20° C | 66% | 1017.7 hPa | 0 mm | - | - | - |
| 1777719579 | 20.56° C | 65% | 1017.7 hPa | 0 mm | - | - | - |
| 1777718679 | 20.56° C | 65% | 1017.7 hPa | 0 mm | - | - | - |
| 1777717779 | 20.56° C | 65% | 1017.6 hPa | 0 mm | - | - | - |
| 1777716879 | 20.56° C | 65% | 1017.7 hPa | 0 mm | - | - | - |
| 1777715979 | 20.56° C | 65% | 1017.6 hPa | 0 mm | - | - | - |
| 1777715077 | 20.56° C | 65% | 1017.7 hPa | 0 mm | - | - | - |
| 1777714174 | 20.56° C | 65% | 1017.6 hPa | 0 mm | - | - | - |
| 1777713273 | 20° C | 66% | 1017.8 hPa | 0 mm | - | - | - |
| 1777711470 | 20° C | 66% | 1017.8 hPa | 0 mm | - | - | - |
| 1777710570 | 20° C | 66% | 1017.7 hPa | 0 mm | - | - | - |
| 1777709670 | 20° C | 65% | 1017.7 hPa | 0 mm | - | - | - |
| 1777708770 | 20.56° C | 64% | 1017.7 hPa | 0 mm | - | - | - |
| 1777707871 | 21.11° C | 63% | 1017.6 hPa | 0 mm | - | - | - |
| 1777706971 | 21.11° C | 63% | 1017.5 hPa | 0 mm | - | - | - |
| 1777706071 | 21.67° C | 61% | 1017.4 hPa | 0 mm | - | - | - |
| 1777705170 | 22.22° C | 59% | 1017.2 hPa | 0 mm | - | - | - |
| 1777704270 | 22.78° C | 58% | 1017.3 hPa | 0 mm | - | - | - |
| 1777703371 | 22.78° C | 56% | 1017.4 hPa | 0 mm | - | - | - |
| 1777702466 | 23.33° C | 56% | 1017.4 hPa | 0 mm | - | - | - |
| 1777701564 | 23.33° C | 54% | 1017.3 hPa | 0 mm | - | - | - |
| 1777700664 | 23.89° C | 54% | 1017.4 hPa | 0 mm | - | - | - |
* Rain latest hour (hover to see other rain measurements)
** Current wind speed in m/s (hover to see current wind gust speed)